Overview Statistics Trail Chart Weather Telemetry Raw packets
 

This is the latest recevied weather packets stored in our database for station/object N7BTW-13. If no packets are shown the sender has not sent any weather packets the latest 10 day(s).

<< 38 39 40 41 42 43 44 >>
Time Temp. Humidity Pressure Rain* Wind** Luminosity Snow
1788048606 25.56° C 40% - 0 mm - - -
1788048011 24.44° C 40% - 0 mm - - -
1788047409 25° C 39% - 0 mm - - -
1788046807 25° C 41% - 0 mm - - -
1788046208 25.56° C 41% - 0 mm - - -
1788045605 25.56° C 41% - 0 mm - - -
1788045009 23.89° C 44% - 0 mm - - -
1788044410 23.89° C 43% - 0 mm - - -
1788043810 26.67° C 37% - 0 mm - - -
1788043207 26.67° C 39% - 0 mm - - -
1788042609 26.67° C 39% - 0 mm - - -
1788042009 26.11° C 38% - 0 mm - - -
1788041410 23.89° C 43% - 0 mm - - -
1788040808 22.78° C 46% - 0 mm - - -
1788040207 22.22° C 48% - 0 mm - - -
1788039608 22.78° C 47% - 0 mm - - -
1788039007 23.33° C 44% - 0 mm - - -
1788038407 24.44° C 44% - 0 mm - - -
1788037807 25.56° C 42% - 0 mm - - -
1788037221 25° C 44% - 0 mm - - -
1788036606 22.78° C 50% - 0 mm - - -
1788036008 22.22° C 53% - 0 mm - - -
1788035409 23.89° C 50% - 0 mm - - -
1788034806 24.44° C 49% - 0 mm - - -
1788034209 23.33° C 50% - 0 mm - - -

* Rain latest hour (hover to see other rain measurements)
** Current wind speed in m/s (hover to see current wind gust speed)